[[{"header":{"parameterUnit":"m.s-1","parameterCategory":1,"la1":30.2991,"la2":30.254,"lo1":-89.0895,"lo2":-89.0444,"dy":0.0017,"dx":0.0017,"nx":28,"ny":28,"refTime":"2023-09-17T03:00:00:Z","depth":0,"parameterNumber":2,"parameterNumberName":"U-component_of_WINDS"},"data":[0,0,0,0,0,0,0,0,0,0,0,0,0,0,0,0,0,0,0,0,0,0,0,0,0,0,0,0,0,0,0,0,0,0,0,0,0,0,0,0,0,0,0,0,0,0,0,0,0,0,0,0,0,0,0,0,0,0,1.9687,1.9686,0,1.9642,1.9642,1.9641,1.9593,1.9593,1.9592,1.9591,1.9544,1.9544,1.9543,0,0,0,0,0,0,0,0,0,0,0,0,0,1.9729,1.9728,1.9687,1.9686,1.9686,1.9642,1.9642,1.9641,1.9593,1.9592,1.9592,1.9591,1.9544,1.9544,1.9543,0,0,0,0,0,0,0,0,0,0,0,0,0,1.97,1.9728,1.9687,1.9657,1.9654,1.9643,1.9642,1.9641,1.9594,1.9592,1.9591,1.959,1.9545,1.9544,1.9543,1.9558,0,0,1.954,1.954,0,0,0,0,0,0,0,0,1.9702,1.9699,1.9662,1.9659,1.9655,1.9622,1.9639,1.9613,1.9594,1.9616,1.9591,1.959,1.9571,1.9568,1.9562,1.9556,1.9554,1.954,1.954,1.9539,1.9539,0,0,0,0,0,0,0,1.9704,1.97,1.9669,1.9661,1.9657,1.9645,1.964,1.9634,1.96,1.9614,1.9611,1.9606,1.9569,1.9563,1.956,1.9553,1.954,1.9539,1.9539,1.9538,1.9556,1.9557,0,0,0,0,0,0,1.9711,1.9702,1.9671,1.9668,1.9676,1.9645,1.9639,1.9634,1.96,1.9594,1.9607,1.9604,1.9565,1.9561,1.9558,1.9572,1.9539,1.9538,1.9538,1.9555,1.9556,1.9557,0,0,0,0,0,0,1.9712,1.9708,1.9672,1.9684,1.9679,1.9645,1.964,1.9634,1.9627,1.9594,1.9588,1.9607,1.9564,1.956,1.9558,1.957,1.9538,1.9537,1.9553,1.9555,1.9556,1.9602,0,0,0,0,0,0,1.9713,1.9709,1.9715,1.9685,1.9678,1.9674,1.9641,1.9633,1.9626,1.9622,1.9593,1.9587,1.9563,1.956,1.9557,1.9568,1.9536,1.9552,1.9554,1.9556,1.9599,1.9605,1.9609,0,0,0,0,0,1.9715,1.9729,1.9715,1.9712,1.9685,1.9674,1.9671,1.9643,1.9627,1.9632,1.9611,1.9588,1.957,1.956,1.9557,1.9568,1.9551,1.9554,1.9556,1.9597,1.9603,1.9609,0,0,0,0,0,0,1.9761,1.9725,1.9709,1.9714,1.9698,1.9666,1.9672,1.9651,1.9639,1.9635,1.9601,1.9595,1.9597,1.9582,1.9572,1.958,1.9557,1.9559,1.9589,1.9595,1.9601,1.9603,1.9536,0,0,0,0,0,1.9772,1.9767,1.9735,1.9743,1.9736,1.9705,1.97,1.968,1.9662,1.9654,1.9633,1.9616,1.9606,1.96,1.9589,1.9597,1.9589,1.9603,1.9608,1.9613,1.9614,1.9616,1.9621,1.9564,1.9564,1.9564,0,0,1.9794,1.9774,1.9773,1.9752,1.9737,1.9732,1.97,1.9696,1.9692,1.9654,1.965,1.9635,1.9613,1.9616,1.9616,1.9603,1.9628,1.9616,1.9619,1.9618,1.9619,1.9624,1.9629,1.9566,1.9566,1.9565,0,0,1.9832,1.9817,1.982,1.9806,1.9784,1.9764,1.9765,1.9737,1.9725,1.9721,1.9692,1.9686,1.9671,1.9656,1.9647,1.9679,1.9656,1.9676,1.9703,1.9705,1.971,1.9713,1.9723,1.9728,1.9678,1.9678,1.9678,0,1.9862,1.9854,1.9825,1.9823,1.9814,1.978,1.9783,1.9771,1.9746,1.9741,1.9728,1.9706,1.969,1.9688,1.9696,1.969,1.9689,1.9679,1.9711,1.9715,1.9718,1.9727,1.9731,1.9681,1.968,1.968,1.968,0,1.9891,1.9886,1.9892,1.9869,1.9862,1.9862,1.9833,1.9828,1.981,1.979,1.9787,1.9766,1.9749,1.9748,1.9729,1.9743,1.9736,1.9718,1.9694,1.9726,1.9734,1.9738,1.9684,1.9683,1.9683,1.9682,0,0,1.9956,1.9918,1.992,1.9909,1.9882,1.9877,1.9877,1.9861,1.9857,1.9842,1.9839,1.9827,1.9809,1.9798,1.9778,1.978,1.9805,1.9761,1.976,1.9769,1.9818,1.9831,1.9836,1.9791,1.9792,1.9792,1.9819,0,1.9988,1.9984,1.9958,1.9962,1.9956,1.9923,1.9922,1.9905,1.9888,1.988,1.986,1.9851,1.983,1.9823,1.9824,1.9802,1.9814,1.98,1.9787,1.9787,1.9792,1.984,1.9854,1.9881,1.9822,1.9823,1.9823,0,2.0024,2.0011,2.0014,1.9987,1.9983,1.9983,1.9966,1.996,1.9939,1.9926,1.9915,1.9891,1.9888,1.9866,1.986,1.9851,1.9844,1.9833,1.9833,1.9829,1.9806,1.9836,1.9889,1.9892,1.9828,1.9828,1.9828,0,2.0069,2.0052,2.0052,2.0043,2.0012,2.0012,1.9999,1.9978,1.997,1.9956,1.995,1.9935,1.9927,1.9916,1.9889,1.9876,1.9885,1.9862,1.9873,1.9874,1.9875,1.9875,1.9926,1.9874,1.9874,1.9874,1.9873,0,2.0107,2.0109,2.0071,2.0071,2.0073,2.0043,2.0045,2.0029,2.0011,2.0006,1.9977,1.9973,1.9939,1.993,1.991,1.9907,1.9903,1.9892,1.9886,1.9894,1.9895,1.9888,1.9884,1.9875,1.9874,1.9874,1.9874,0,2.0157,2.0132,2.0128,2.0099,2.0092,2.0094,2.0069,2.0066,2.0047,2.0041,2.0038,2.0008,1.9997,1.9969,1.9951,1.9937,1.9939,1.9929,1.9946,1.9942,1.9954,1.9952,2.0,2.0004,1.9951,1.9952,1.9952,0,2.0182,2.0183,2.0154,2.0149,2.0137,2.0129,2.0121,2.0092,2.0084,2.0061,2.0062,2.0048,2.0036,2.0019,1.9995,1.9981,1.9969,1.9987,1.9967,1.9974,1.9968,1.9967,1.9967,1.9991,1.9992,1.9992,1.9993,0,2.0228,2.0215,2.0205,2.019,2.0182,2.0169,2.0154,2.0151,2.0118,2.0111,2.01,2.009,2.0071,2.0058,2.004,2.0025,2.0003,2.0,2.0001,2.0008,2.0017,2.0011,1.9956,1.9998,1.9998,1.9997,1.9997,1.9997,2.0265,2.0264,2.0243,2.0233,2.0219,2.0206,2.0202,2.0182,2.0172,2.0155,2.0138,2.0128,2.0107,2.0081,2.0068,2.0059,2.0047,2.005,2.005,2.0051,2.0054,2.002,2.0055,2.0055,2.0055,2.0055,2.0055,0,2.0308,2.0293,2.0284,2.0264,2.0256,2.0237,2.022,2.0213,2.0205,2.0188,2.0176,2.0163,2.0149,2.0124,2.0109,2.0106,2.0096,2.0103,2.0102,2.0099,2.0066,2.0065,2.0112,2.0112,2.0112,2.0112,2.0112,2.0112,2.0329,2.0327,2.0312,2.0302,2.0287,2.0277,2.0269,2.0256,2.0242,2.0228,2.0217,2.0201,2.0181,2.0163,2.015,2.0143,2.0138,2.0148,2.0138,2.0107,2.0101,2.0096,2.0095,2.0148,2.0148,2.0171,2.0172,2.0172]},{"header":{"parameterUnit":"m.s-1","parameterCategory":1,"la1":30.2991,"la2":30.254,"lo1":-89.0895,"lo2":-89.0444,"dy":0.0017,"dx":0.0017,"nx":28,"ny":28,"refTime":"2023-09-17T03:00:00:Z","depth":0,"parameterNumber":3,"parameterNumberName":"V-component_of_WINDS"},"data":[0,0,0,0,0,0,0,0,0,0,0,0,0,0,0,0,0,0,0,0,0,0,0,0,0,0,0,0,0,0,0,0,0,0,0,0,0,0,0,0,0,0,0,0,0,0,0,0,0,0,0,0,0,0,0,0,0,0,-4.0294,-4.0295,0,-4.0452,-4.0454,-4.0456,-4.0416,-4.0413,-4.041,-4.0407,-4.0567,-4.0574,-4.0581,0,0,0,0,0,0,0,0,0,0,0,0,0,-3.9956,-3.9963,-4.0294,-4.0296,-4.0298,-4.0452,-4.0454,-4.0456,-4.0417,-4.0413,-4.041,-4.0406,-4.0565,-4.0573,-4.0581,0,0,0,0,0,0,0,0,0,0,0,0,0,-4.0107,-3.9965,-4.0293,-4.0297,-4.0299,-4.0451,-4.0454,-4.0457,-4.0418,-4.0413,-4.0409,-4.0404,-4.0562,-4.0572,-4.0583,-4.0741,0,0,-4.0615,-4.062,0,0,0,0,0,0,0,0,-4.0099,-4.012,-4.0294,-4.0297,-4.0299,-4.041,-4.0393,-4.0552,-4.0419,-4.0373,-4.0407,-4.0402,-4.0518,-4.0532,-4.0572,-4.0748,-4.0755,-4.0616,-4.0623,-4.0627,-4.063,0,0,0,0,0,0,0,-4.0088,-4.0113,-4.0356,-4.0297,-4.03,-4.029,-4.0306,-4.0423,-4.0469,-4.0376,-4.0374,-4.0393,-4.0519,-4.0562,-4.0575,-4.0757,-4.0616,-4.0625,-4.0632,-4.0636,-4.1073,-4.1077,0,0,0,0,0,0,-4.0076,-4.0104,-4.0351,-4.0361,-4.0186,-4.03,-4.0318,-4.0379,-4.0468,-4.0477,-4.0397,-4.0391,-4.0546,-4.0563,-4.0581,-4.0773,-4.0627,-4.0637,-4.0643,-4.1067,-4.1074,-4.1079,0,0,0,0,0,0,-4.0069,-4.0099,-4.0345,-4.0232,-4.0263,-4.0311,-4.0379,-4.0384,-4.0428,-4.0484,-4.0491,-4.0433,-4.0543,-4.0566,-4.0702,-4.0778,-4.0642,-4.0652,-4.1061,-4.1069,-4.1077,-4.1158,0,0,0,0,0,0,-4.006,-4.0096,-4.0157,-4.0234,-4.0269,-4.0464,-4.0384,-4.0391,-4.0446,-4.044,-4.0519,-4.0528,-4.0541,-4.0686,-4.0712,-4.079,-4.066,-4.1055,-4.1065,-4.1074,-4.1149,-4.1168,-4.1184,0,0,0,0,0,-4.0048,-4.0173,-4.016,-4.019,-4.0346,-4.0468,-4.0488,-4.0502,-4.0453,-4.0514,-4.055,-4.0525,-4.0765,-4.07,-4.073,-4.0812,-4.105,-4.1062,-4.1073,-4.1141,-4.1164,-4.1183,0,0,0,0,0,0,-4.0103,-4.0183,-4.017,-4.0324,-4.039,-4.0462,-4.054,-4.0525,-4.0606,-4.0596,-4.0609,-4.0627,-4.0766,-4.0802,-4.0729,-4.097,-4.09,-4.0918,-4.0942,-4.0964,-4.0981,-4.097,-4.0669,0,0,0,0,0,-4.0133,-4.0226,-4.0291,-4.042,-4.0454,-4.0491,-4.0545,-4.055,-4.0618,-4.0646,-4.0692,-4.0758,-4.0849,-4.0908,-4.0994,-4.1153,-4.1171,-4.1224,-4.1242,-4.1256,-4.1272,-4.136,-4.1385,-4.1118,-4.1118,-4.1117,0,0,-4.0196,-4.0251,-4.0309,-4.0433,-4.0485,-4.0581,-4.0515,-4.0619,-4.0691,-4.0661,-4.0793,-4.0829,-4.0904,-4.1053,-4.1121,-4.1088,-4.1349,-4.1271,-4.1282,-4.129,-4.1374,-4.14,-4.1422,-4.1126,-4.1124,-4.1123,0,0,-4.0361,-4.0412,-4.0526,-4.0579,-4.0659,-4.0683,-4.071,-4.0785,-4.0808,-4.0941,-4.0922,-4.1006,-4.1161,-4.1216,-4.1265,-4.1451,-4.1432,-4.1479,-4.1571,-4.1656,-4.1677,-4.1696,-4.1764,-4.1788,-4.1494,-4.1494,-4.1494,0,-4.0429,-4.0574,-4.0586,-4.0693,-4.0748,-4.0727,-4.0843,-4.0894,-4.0997,-4.1036,-4.0997,-4.1193,-4.1242,-4.1404,-4.1449,-4.1489,-4.1521,-4.147,-4.1674,-4.1692,-4.171,-4.1775,-4.18,-4.15,-4.1499,-4.1498,-4.1498,0,-4.0655,-4.0755,-4.0838,-4.094,-4.1004,-4.1115,-4.1144,-4.1208,-4.1207,-4.1235,-4.1371,-4.1429,-4.1528,-4.1566,-4.1565,-4.1729,-4.1706,-4.167,-4.1601,-4.1741,-4.1802,-4.1827,-4.1507,-4.1505,-4.1504,-4.1502,0,0,-4.0859,-4.0967,-4.0997,-4.1044,-4.113,-4.1208,-4.1318,-4.1416,-4.1471,-4.1542,-4.1635,-4.1768,-4.1736,-4.1791,-4.1796,-4.1871,-4.2018,-4.1827,-4.1829,-4.1862,-4.2202,-4.2229,-4.2258,-4.2004,-4.2009,-4.2013,-4.2196,0,-4.1032,-4.1227,-4.1242,-4.1417,-4.1511,-4.1493,-4.1589,-4.1652,-4.1681,-4.1765,-4.1796,-4.1891,-4.1841,-4.1874,-4.1948,-4.1984,-4.2086,-4.1971,-4.2091,-4.2095,-4.2075,-4.229,-4.2319,-4.2489,-4.222,-4.2224,-4.2227,0,-4.126,-4.1341,-4.1527,-4.1602,-4.1641,-4.1728,-4.1819,-4.1899,-4.197,-4.1986,-4.2048,-4.2044,-4.2156,-4.2082,-4.2238,-4.2159,-4.2209,-4.2235,-4.2241,-4.2254,-4.2171,-4.231,-4.2543,-4.257,-4.2265,-4.2262,-4.2259,0,-4.1393,-4.1547,-4.1679,-4.1719,-4.1809,-4.187,-4.191,-4.1977,-4.2036,-4.2115,-4.2153,-4.2243,-4.2294,-4.2364,-4.2384,-4.2328,-4.254,-4.2467,-4.2557,-4.2556,-4.2603,-4.26,-4.285,-4.2633,-4.2632,-4.2632,-4.2631,0,-4.1586,-4.17,-4.174,-4.1821,-4.1949,-4.1964,-4.209,-4.2127,-4.2187,-4.2274,-4.2263,-4.2345,-4.2366,-4.2452,-4.2468,-4.2596,-4.2618,-4.2634,-4.2637,-4.2636,-4.2634,-4.267,-4.2659,-4.2639,-4.2637,-4.2636,-4.2635,0,-4.1755,-4.1786,-4.1929,-4.2003,-4.2024,-4.2115,-4.2179,-4.2256,-4.2284,-4.2395,-4.2422,-4.2466,-4.2567,-4.2594,-4.2714,-4.2724,-4.2875,-4.2866,-4.2852,-4.2852,-4.2941,-4.2933,-4.3223,-4.3263,-4.3019,-4.3021,-4.3023,0,-4.1877,-4.1965,-4.2049,-4.2108,-4.2151,-4.2245,-4.2305,-4.2324,-4.2386,-4.2475,-4.2543,-4.2642,-4.2723,-4.2885,-4.2927,-4.3019,-4.3014,-4.3109,-4.3027,-4.3024,-4.3017,-4.3012,-4.3022,-4.3125,-4.3127,-4.313,-4.3131,0,-4.2091,-4.2102,-4.2189,-4.2283,-4.2354,-4.2428,-4.2499,-4.2547,-4.2576,-4.2647,-4.2751,-4.2814,-4.2937,-4.3037,-4.313,-4.3171,-4.3157,-4.3157,-4.3183,-4.3183,-4.3172,-4.3181,-4.2896,-4.315,-4.3148,-4.3147,-4.3146,-4.3145,-4.2241,-4.232,-4.2392,-4.2489,-4.2545,-4.2612,-4.2689,-4.2727,-4.2815,-4.2918,-4.2923,-4.3036,-4.3106,-4.323,-4.3276,-4.3365,-4.3336,-4.3373,-4.3383,-4.3392,-4.3401,-4.3157,-4.3381,-4.3381,-4.338,-4.338,-4.3379,0,-4.2456,-4.2502,-4.2591,-4.2692,-4.2769,-4.2749,-4.2827,-4.2893,-4.2993,-4.306,-4.314,-4.326,-4.3357,-4.3407,-4.3503,-4.3564,-4.356,-4.3589,-4.3585,-4.3595,-4.342,-4.3389,-4.3591,-4.3591,-4.3591,-4.3591,-4.3591,-4.3591,-4.2577,-4.2709,-4.2728,-4.2888,-4.2932,-4.3044,-4.3091,-4.3152,-4.3206,-4.3341,-4.3422,-4.3454,-4.3515,-4.3615,-4.3703,-4.3715,-4.3751,-4.3784,-4.3793,-4.3629,-4.3607,-4.3587,-4.3558,-4.3792,-4.3792,-4.3961,-4.3963,-4.3964]}]]